Wind_Speed
21 21 21 20 20 20 18 16 15 15 15 14 14 13 12 13 13 13 14 15 16 16 15 14 13 13 14 15 15 16 17 19 20 20 20 19 18 17 16 15 15 16 16 17 17 18 19 18 16 15 16 20 21 23 24 23 24 25 25 24 24 22 21
23 22 21 20 20 20 18 15 15 15 14 13 13 13 13 14 14 14 14 15 15 15 14 14 14 14 15 16 17 18 19 21 21 20 20 19 17 16 15 15 15 15 16 17 17 17 19 20 20 18 17 18 19 20 22 24 24 25 24 23 21 21 21
24 21 20 20 20 20 17 15 15 15 14 14 13 13 14 14 14 14 15 15 15 15 14 14 15 15 16 17 18 20 21 21 20 20 19 18 17 16 15 14 15 15 16 16 16 17 18 19 20 21 21 21 21 20 21 23 24 22 21 21 20 21 22
23 20 19 20 21 19 17 16 15 14 15 15 14 14 15 13 13 15 15 16 16 15 15 15 16 17 17 19 20 21 21 20 20 20 19 17 16 15 15 15 15 15 16 16 16 17 17 16 17 19 21 22 25 25 22 23 23 21 20 21 21 22 23
22 20 20 21 21 19 17 16 16 15 16 16 15 15 15 14 14 16 16 17 17 16 16 16 17 18 19 20 21 21 20 20 20 19 18 17 16 16 15 15 15 16 16 16 17 16 16 15 16 17 19 20 23 26 26 25 23 21 21 22 22 23 24
21 21 21 21 20 18 17 17 16 16 16 16 15 15 16 16 16 16 17 17 17 17 17 17 18 19 20 20 20 20 20 20 20 18 17 17 16 16 16 16 16 16 17 17 17 16 15 15 15 17 18 19 20 22 25 27 26 23 23 23 23 24 24
21 21 21 21 20 18 17 17 17 17 17 16 16 16 16 17 17 17 18 18 18 18 18 19 19 20 20 20 19 19 20 19 18 18 17 17 16 16 16 16 17 17 17 17 16 15 15 15 15 16 17 18 18 19 20 23 25 24 22 22 23 24 25
21 21 21 21 20 18 17 17 17 17 17 16 16 16 17 17 17 17 18 18 18 19 19 19 19 19 19 19 19 19 19 18 18 17 17 17 16 16 16 17 17 17 17 17 16 15 15 15 15 16 17 18 18 17 16 17 20 22 21 21 22 24 25
22 22 22 21 20 18 18 18 18 17 16 16 17 16 16 17 17 17 17 18 18 18 19 19 19 19 18 18 18 18 18 17 17 17 17 17 17 17 17 17 18 18 17 16 16 15 15 15 15 16 17 18 18 17 16 16 17 20 20 20 21 23 25
22 21 21 20 19 19 19 18 18 17 16 17 17 16 16 16 16 16 17 17 17 17 18 18 18 18 18 18 18 17 17 17 17 17 17 17 17 17 17 18 18 18 17 16 15 15 15 14 15 15 16 16 17 16 16 17 17 18 19 21 22 23 25
22 21 20 20 20 19 19 19 18 17 17 18 18 17 16 17 17 16 16 16 16 17 17 18 18 17 17 17 17 17 17 17 17 17 17 17 18 17 18 18 18 17 16 16 15 15 14 14 14 15 15 15 15 15 15 16 18 18 19 20 22 23 25
22 20 19 20 20 19 19 19 17 17 19 19 19 18 18 18 17 16 16 15 16 17 18 18 17 16 16 16 16 17 17 17 17 17 18 18 18 18 18 18 17 16 16 15 15 14 14 14 14 14 14 14 14 14 15 15 17 19 20 21 22 24 26
22 20 20 19 18 19 19 19 18 19 21 20 20 19 19 18 18 17 16 16 17 18 17 16 15 15 16 16 16 17 17 17 17 18 18 18 18 18 18 17 16 16 15 15 14 14 13 13 14 14 13 13 13 13 14 15 16 18 21 23 24 26 27
22 21 20 18 19 20 20 20 19 20 22 21 20 20 19 19 18 18 17 18 18 17 16 15 15 15 16 16 16 16 17 18 18 18 18 18 18 18 17 16 16 16 15 14 14 13 13 13 13 13 12 12 12 13 14 15 17 18 20 23 25 26 27
22 21 20 19 20 21 21 21 20 21 22 22 21 20 20 20 19 19 18 19 18 17 16 15 15 15 15 15 16 17 18 18 18 18 18 18 18 17 17 16 16 15 15 14 14 13 13 13 13 12 12 12 12 13 15 16 18 19 20 22 24 26 27
23 22 22 21 21 21 21 21 21 22 23 23 22 21 20 20 20 20 20 20 19 18 16 15 15 15 14 15 16 17 17 18 18 18 18 18 18 17 17 16 15 15 14 14 13 13 13 13 13 12 12 12 13 14 16 17 19 21 22 23 25 27 29
24 23 23 23 22 21 22 21 22 23 23 23 22 21 20 21 21 21 21 21 20 18 17 16 15 15 14 15 16 16 17 17 18 18 17 17 17 17 16 15 15 14 14 13 13 13 13 13 12 12 12 13 14 15 17 19 21 22 24 25 26 28 30
24 23 23 23 22 22 22 22 23 23 23 23 22 21 21 22 22 22 22 22 21 20 19 17 16 15 15 15 15 15 16 17 17 17 17 17 17 16 15 15 14 14 13 13 12 12 12 12 12 12 13 13 14 16 18 19 21 23 25 26 27 29 30
24 24 23 23 23 22 22 23 23 23 23 23 21 21 22 23 23 24 23 23 23 22 20 19 18 16 15 14 14 15 15 16 17 17 17 16 15 15 14 14 14 13 13 12 12 12 11 11 11 12 13 13 14 16 18 20 21 23 25 27 28 29 31
25 24 23 23 23 23 23 24 24 23 23 23 22 22 23 24 24 24 24 24 24 23 23 23 20 17 16 15 14 14 14 15 17 17 16 15 15 14 14 13 13 13 12 12 11 10 10 11 12 12 12 13 15 16 18 20 21 23 25 27 28 30 31
25 24 24 24 24 24 24 24 24 23 23 23 22 22 23 24 24 25 25 26 26 25 25 25 22 19 20 19 17 16 14 14 16 16 15 15 14 14 13 13 13 12 11 10 10 10 12 12 11 11 12 13 15 16 18 20 21 23 25 26 28 30 32
25 25 25 25 25 25 25 24 24 23 23 23 23 23 23 23 24 26 26 26 26 25 24 23 21 19 19 18 18 17 14 13 14 15 14 15 14 14 13 13 12 12 10 10 11 12 12 10 10 11 12 13 15 17 19 20 22 24 25 26 28 30 32
26 26 25 25 25 25 25 25 24 23 23 23 23 23 22 22 24 25 26 26 27 25 22 20 19 16 15 16 18 17 13 12 14 14 14 14 14 13 13 12 12 11 10 11 12 11 9 9 9 10 12 13 15 17 20 22 23 24 25 26 28 31 33
27 26 25 25 26 26 26 26 24 22 23 23 23 23 22 23 25 26 27 27 23 18 17 18 18 16 15 16 17 15 13 12 14 14 14 14 14 13 13 12 12 11 11 12 11 8 8 8 9 10 11 13 15 18 20 22 23 24 25 26 28 31 34
27 26 24 25 26 26 27 26 24 23 23 22 23 24 23 24 25 26 27 25 17 13 13 15 16 16 15 15 16 15 13 13 14 14 14 15 14 13 13 12 11 11 12 11 8 7 8 8 9 10 12 13 15 17 19 21 22 23 25 26 28 31 35
28 25 24 25 26 27 27 26 24 23 23 23 24 24 23 24 24 23 23 21 17 15 14 14 15 15 14 14 14 14 13 13 14 14 15 15 14 13 12 12 11 12 11 9 7 7 8 8 9 11 12 14 15 17 19 21 22 23 25 27 29 31 35
27 24 24 25 26 26 26 26 25 24 24 25 25 24 23 23 23 22 20 20 20 19 15 14 14 13 13 13 13 13 13 13 13 14 14 14 13 13 13 12 12 11 9 8 7 7 7 8 9 11 12 14 16 18 19 20 21 23 24 26 29 32 35
26 25 25 25 25 26 28 28 27 26 25 26 26 26 26 24 23 21 21 20 21 19 16 16 15 14 14 13 13 13 13 13 14 14 14 14 14 13 13 13 12 10 8 8 8 7 8 8 10 11 13 15 17 19 20 21 22 23 25 27 30 33 35
26 25 25 24 25 27 28 28 28 27 27 27 27 26 26 25 23 22 22 22 21 18 16 17 16 15 15 14 13 13 13 13 14 14 14 14 14 13 13 14 13 10 8 8 7 7 8 9 10 11 13 15 17 19 20 21 22 24 25 27 29 31 31
26 25 24 23 25 27 28 28 28 28 27 26 26 25 24 24 24 24 23 22 20 16 15 18 17 16 16 15 13 13 14 14 15 14 14 15 14 13 14 14 13 10 8 8 7 7 8 9 10 11 13 15 17 18 19 20 21 23 25 26 27 28 30
25 25 24 25 26 28 28 28 28 29 27 25 24 24 23 24 26 27 24 21 20 17 17 20 19 18 17 15 14 14 15 15 15 14 14 15 14 14 14 14 13 11 9 8 8 7 8 9 10 11 13 15 16 17 18 19 20 21 23 24 25 27 30
26 26 26 27 28 29 29 28 28 29 28 25 25 26 26 26 28 28 24 23 22 19 18 21 21 19 18 16 15 16 16 15 15 14 14 15 14 15 15 14 13 11 10 9 8 7 8 9 10 11 13 15 16 17 18 18 19 21 22 23 25 27 30
27 27 28 28 29 29 29 28 27 28 28 26 26 27 27 27 29 27 25 25 24 19 18 21 22 21 21 18 17 17 16 15 15 15 14 15 15 15 15 14 13 12 11 10 8 8 9 9 10 11 13 15 16 16 17 18 19 21 22 23 26 28 31
28 29 28 29 28 28 28 27 26 26 25 24 25 26 26 25 26 27 27 27 23 17 17 21 23 23 22 19 16 16 15 15 15 15 14 15 16 16 14 14 13 12 11 10 9 9 9 9 10 11 13 15 16 16 17 18 19 20 21 23 26 28 30
29 28 27 27 26 25 26 27 25 24 23 24 26 28 27 25 26 28 28 25 20 15 16 20 22 21 20 18 16 15 15 15 15 15 15 16 16 16 14 13 13 12 11 11 10 10 9 9 10 12 13 15 16 16 17 18 18 19 21 24 27 28 30
27 26 26 25 25 25 27 27 25 24 26 29 28 26 26 28 30 28 24 19 16 15 16 18 20 19 18 17 15 14 14 16 16 16 17 17 17 16 14 12 13 13 12 11 11 10 10 10 10 12 13 15 16 16 17 18 18 19 21 24 26 28 30
25 25 25 25 26 27 27 27 26 27 29 31 29 27 29 30 26 20 16 15 16 16 16 17 17 18 18 16 15 14 15 16 16 18 19 19 17 16 12 10 13 14 14 12 11 11 10 10 11 12 13 14 16 17 17 17 18 19 21 24 26 28 30
Wind_Direction
248 246 245 247 251 258 261 261 257 254 253 251 251 253 250 247 247 247 246 247 251 254 259 261 260 259 260 263 269 275 282 288 291 292 293 294 293 291 292 293 294 299 303 302 305 309 312 313 313 317 321 325 329 329 326 326 326 325 327 328 329 328 325
244 245 246 248 253 259 260 256 251 250 252 252 250 250 248 247 247 246 246 248 252 256 260 262 261 262 264 268 273 279 284 287 288 290 291 291 290 289 289 290 292 295 297 299 303 306 309 310 313 321 326 326 326 326 324 324 325 327 328 327 324 319 319
244 244 245 250 256 259 257 253 251 249 250 251 249 248 248 247 246 245 246 249 254 258 261 263 263 265 268 272 277 281 284 285 286 289 290 288 287 287 287 287 289 292 295 298 301 301 303 307 314 323 327 325 323 323 323 322 324 327 324 318 315 318 325
243 241 244 253 258 257 254 251 251 248 249 251 248 249 251 247 244 246 247 251 256 259 262 264 265 267 271 275 279 281 282 283 286 288 288 286 285 284 283 284 288 292 294 295 295 295 298 305 314 320 325 325 323 324 325 322 323 324 317 314 321 329 334
239 240 245 253 255 253 252 250 248 247 248 250 247 247 251 247 245 248 250 253 256 260 263 264 266 269 274 277 279 279 281 285 287 287 286 284 283 282 282 285 289 292 292 291 290 293 299 307 314 318 322 324 322 322 323 321 322 323 320 323 332 335 335
237 240 247 252 252 251 251 249 246 245 246 249 248 246 247 246 246 250 252 253 256 259 262 265 268 272 275 276 277 279 283 286 286 286 284 283 282 282 284 286 289 290 290 290 291 295 302 309 313 316 319 321 321 322 321 319 322 328 330 333 335 335 334
237 241 248 252 251 251 249 245 241 241 245 249 249 245 244 247 249 251 254 254 255 258 262 266 270 273 274 275 278 281 284 285 284 284 283 282 282 282 284 286 288 291 291 291 293 298 303 308 312 315 317 319 320 319 317 316 320 328 333 333 332 333 333
237 243 248 250 250 248 245 240 238 240 246 250 249 245 244 248 252 253 254 254 255 258 263 268 270 271 272 275 279 282 283 283 283 282 281 282 282 282 284 288 291 292 292 292 295 299 303 307 310 314 316 316 316 314 313 312 315 321 327 329 329 329 330
239 244 247 248 248 245 241 237 236 240 247 251 248 246 245 249 253 253 253 253 255 260 264 266 268 269 273 276 279 281 282 282 282 281 282 282 282 284 287 290 292 292 292 292 296 299 302 307 310 313 314 313 313 313 312 313 316 319 323 326 327 327 327
240 244 246 245 243 241 238 236 236 240 246 248 246 244 246 250 253 252 252 253 256 260 263 265 267 270 274 277 279 281 282 282 282 282 283 283 284 287 289 290 290 291 291 292 295 298 301 306 309 311 311 310 311 311 312 316 318 320 322 324 325 325 325
240 244 243 240 237 236 237 235 236 239 243 244 245 245 248 252 252 251 252 254 257 261 263 266 268 271 275 277 280 281 281 282 283 284 284 284 286 287 288 289 289 290 291 291 294 297 301 305 307 307 307 306 306 308 313 317 319 320 321 322 322 323 324
240 242 240 236 234 234 235 235 235 239 242 244 245 246 249 251 250 249 251 255 259 262 264 266 269 272 275 277 279 281 281 282 283 284 285 285 286 286 286 288 289 289 289 290 293 296 299 303 304 304 303 303 305 309 315 319 320 320 320 321 322 324 325
238 240 238 235 234 234 235 235 234 237 242 246 246 247 248 248 248 249 252 257 260 262 263 266 269 272 276 278 279 281 282 283 284 284 285 285 285 285 286 287 288 288 289 290 292 295 298 300 300 300 300 302 307 312 316 320 320 320 321 323 325 325 324
237 238 237 235 234 234 234 234 234 236 241 245 246 247 249 247 247 249 254 259 260 261 264 268 271 273 276 278 280 282 283 284 284 284 284 284 284 285 286 287 288 287 288 289 290 292 294 296 296 297 299 302 309 314 318 320 320 320 322 323 324 323 323
235 237 236 235 234 233 234 235 235 237 240 244 246 247 248 248 247 250 256 260 260 263 267 271 272 275 278 280 282 283 284 284 284 284 284 284 284 285 287 288 288 288 288 288 289 292 294 296 297 298 301 307 314 320 322 322 320 322 323 323 322 323 325
234 235 236 236 234 232 233 235 237 238 240 244 246 247 250 249 249 251 257 259 261 265 269 271 273 275 278 280 281 283 284 284 284 284 285 285 285 286 287 288 288 288 287 287 289 292 295 298 299 302 309 316 323 325 324 323 322 324 325 324 325 327 328
234 234 236 237 235 234 234 235 238 239 241 244 247 250 252 251 251 253 257 259 261 266 269 270 272 274 276 280 283 285 285 285 284 285 284 284 285 286 287 289 288 286 286 287 291 295 298 300 303 309 318 324 326 326 325 325 325 325 326 327 330 331 330
235 237 238 239 237 236 236 237 239 240 242 246 249 252 255 254 253 255 257 259 262 266 267 268 270 271 276 281 285 286 286 285 285 284 283 283 284 286 287 287 286 285 285 287 291 295 298 303 309 316 322 325 326 326 326 326 326 326 327 329 332 334 334
236 239 240 240 239 239 238 240 240 241 244 247 251 254 257 256 255 256 258 261 265 267 267 267 268 270 275 280 283 284 284 284 283 281 281 281 282 284 284 284 283 282 284 286 291 295 300 307 313 317 323 326 328 327 326 326 326 327 330 332 334 336 337
235 239 240 241 241 240 240 241 242 243 246 250 254 257 258 258 258 260 262 265 268 270 270 268 265 266 270 270 269 272 276 279 278 276 277 279 280 281 282 283 281 280 283 286 290 295 301 308 313 319 326 328 327 326 325 326 327 330 333 334 336 338 339
233 236 239 240 241 241 241 243 244 246 249 253 256 259 261 262 263 265 268 271 273 274 275 273 269 265 266 264 263 264 267 269 270 271 273 276 278 280 281 281 279 280 282 283 287 296 303 308 316 325 329 328 326 325 325 326 329 333 336 337 338 339 340
231 234 238 240 241 241 242 243 245 247 250 254 258 261 264 266 267 269 274 277 278 278 278 277 272 266 267 274 278 276 269 262 263 268 272 274 277 280 280 280 279 278 276 280 291 300 304 311 321 328 328 326 325 324 326 330 334 337 339 340 340 340 340
230 235 239 241 242 243 244 245 247 248 251 255 258 262 266 268 269 271 275 278 280 281 279 274 267 263 272 284 284 277 267 260 263 268 271 274 277 280 281 280 275 271 274 286 296 301 306 316 324 327 326 324 325 327 331 335 337 338 341 343 342 340 341
231 236 240 241 243 245 246 248 249 250 253 256 258 262 265 266 267 271 276 278 280 279 275 268 262 265 277 283 278 272 268 263 264 268 270 273 277 280 280 275 268 270 282 292 297 300 307 317 321 323 323 325 329 334 335 335 337 340 343 344 344 343 344
233 238 240 243 246 247 249 250 251 253 255 258 260 262 264 267 270 273 277 280 281 282 280 269 261 265 273 274 271 270 268 264 265 268 271 274 278 280 275 266 264 277 289 293 295 300 307 315 319 322 325 329 333 335 334 334 338 342 343 344 347 347 348
234 238 241 245 248 249 251 253 253 254 256 258 260 262 264 269 273 274 277 282 287 292 287 268 258 263 266 266 270 272 271 270 269 271 274 277 280 277 268 262 269 283 288 288 291 298 306 314 318 322 326 330 334 334 335 337 340 343 344 346 349 350 350
235 238 242 245 249 251 251 253 254 254 255 257 260 262 265 269 273 276 280 284 287 289 280 258 250 252 256 263 269 272 273 271 270 272 275 277 278 272 265 267 276 283 284 283 287 293 302 310 316 321 327 332 334 335 337 340 341 343 346 346 349 352 353
236 239 241 245 249 251 252 253 254 255 255 257 259 261 264 266 268 273 278 278 279 279 264 245 240 243 250 259 264 266 268 267 267 270 271 273 273 267 265 271 278 279 277 277 282 290 300 309 316 323 330 333 335 336 339 341 343 345 347 348 351 354 353
238 240 244 247 248 250 253 254 256 258 257 257 259 260 262 263 267 274 276 273 275 274 254 238 237 242 249 256 258 261 262 261 263 266 266 269 268 264 267 275 277 275 270 269 275 286 298 308 315 324 330 332 335 337 338 341 344 345 347 350 352 351 348
241 244 248 251 252 254 256 256 257 258 257 257 261 261 260 262 269 275 273 269 273 271 248 237 239 244 250 255 257 258 257 258 261 263 264 265 264 264 272 276 274 271 265 263 270 283 295 305 314 323 329 331 334 335 337 341 344 343 346 349 346 343 345
242 247 250 252 255 257 258 257 257 257 256 256 259 259 257 261 269 273 268 264 267 264 245 237 239 243 248 252 252 251 253 257 260 261 262 262 262 266 272 272 269 266 260 258 266 280 291 301 312 321 326 330 332 332 335 339 340 343 347 345 339 341 348
242 246 248 251 254 257 258 256 255 255 255 254 254 257 260 265 268 269 266 263 264 260 246 240 242 244 247 249 248 248 251 255 259 261 261 261 264 269 271 269 266 262 256 255 263 275 287 298 310 319 324 328 329 329 332 335 337 343 344 339 338 346 352
241 245 248 251 254 257 258 258 256 257 259 259 259 261 264 267 267 266 266 264 261 259 250 245 245 243 240 240 240 243 249 254 257 261 262 262 267 270 269 267 263 259 255 256 260 271 283 296 308 317 322 325 326 328 330 333 338 341 340 338 343 350 354
245 248 251 254 256 259 261 261 260 262 264 266 265 263 264 269 269 268 269 265 259 255 252 250 249 245 241 243 244 242 247 253 256 261 263 264 268 269 266 264 260 255 252 252 258 268 280 294 306 313 320 323 324 326 328 332 337 337 336 342 348 352 355
249 252 255 258 260 261 263 264 264 265 264 264 263 261 264 272 275 275 276 273 265 259 254 252 251 248 248 255 255 247 246 251 255 259 260 262 266 266 263 261 256 250 247 249 255 265 277 291 302 310 318 321 323 326 327 331 334 333 337 347 350 352 356
250 254 256 259 259 257 258 261 262 260 258 259 262 265 270 276 277 275 275 273 268 264 257 254 251 246 245 252 255 251 250 251 253 256 257 260 261 261 262 260 250 244 244 246 251 261 274 286 297 308 315 319 323 326 325 327 330 332 342 349 349 353 357
250 253 256 258 257 255 256 256 256 256 257 260 264 268 273 277 278 273 267 264 264 261 255 251 249 244 243 250 255 255 254 251 252 255 258 262 264 265 266 258 245 242 243 244 249 259 270 283 294 304 311 318 324 323 319 322 328 335 345 349 349 355 358
Height
3151 3151 3152 3154 3155 3155 3156 3156 3156 3156 3156 3157 3158 3159 3160 3160 3161 3162 3162 3163 3163 3164 3164 3164 3165 3165 3165 3165 3165 3165 3165 3164 3163 3163 3162 3162 3161 3160 3160 3159 3158 3157 3157 3156 3155 3153 3152 3153 3153 3153 3151 3149 3148 3146 3145 3144 3143 3141 3140 3138 3136 3134 3133
3149 3149 3151 3152 3153 3153 3154 3154 3154 3154 3155 3156 3157 3158 3158 3159 3160 3160 3161 3161 3162 3162 3163 3163 3163 3163 3164 3164 3164 3163 3163 3162 3162 3161 3161 3160 3160 3159 3158 3158 3157 3156 3155 3155 3153 3152 3150 3149 3149 3149 3149 3148 3147 3146 3143 3141 3140 3139 3137 3136 3135 3133 3131
3146 3148 3149 3150 3151 3152 3152 3153 3153 3153 3154 3155 3156 3156 3157 3158 3158 3159 3160 3160 3160 3161 3161 3162 3162 3162 3162 3162 3162 3162 3161 3161 3160 3160 3159 3158 3158 3157 3157 3156 3156 3155 3155 3154 3152 3151 3150 3148 3146 3145 3145 3144 3144 3144 3143 3140 3139 3137 3136 3135 3134 3132 3129
3145 3146 3147 3148 3149 3150 3150 3151 3151 3152 3153 3154 3155 3155 3155 3156 3157 3158 3158 3159 3159 3159 3160 3160 3160 3160 3161 3160 3160 3160 3159 3159 3158 3158 3157 3157 3156 3156 3156 3155 3155 3154 3153 3152 3151 3150 3149 3147 3145 3143 3142 3141 3139 3139 3140 3139 3137 3136 3135 3133 3131 3129 3127
3143 3144 3146 3146 3147 3147 3148 3149 3149 3150 3151 3152 3154 3154 3154 3155 3156 3156 3157 3157 3158 3158 3159 3159 3159 3159 3159 3159 3158 3158 3158 3157 3157 3156 3156 3155 3155 3155 3154 3154 3153 3153 3152 3151 3150 3149 3148 3146 3144 3142 3141 3140 3138 3136 3135 3135 3135 3134 3133 3131 3129 3127 3126
3142 3143 3143 3144 3145 3146 3146 3147 3148 3149 3150 3151 3152 3153 3153 3154 3155 3155 3155 3156 3157 3157 3157 3157 3157 3157 3157 3157 3156 3156 3156 3155 3155 3154 3154 3154 3153 3153 3153 3152 3152 3151 3150 3149 3148 3147 3146 3144 3143 3141 3140 3139 3138 3135 3133 3131 3131 3131 3129 3128 3127 3126 3124
3140 3141 3142 3142 3143 3144 3145 3145 3146 3147 3148 3149 3150 3151 3152 3152 3153 3154 3154 3155 3155 3155 3156 3156 3155 3155 3155 3155 3155 3154 3154 3153 3153 3153 3152 3152 3152 3151 3151 3151 3150 3149 3148 3147 3146 3145 3144 3142 3141 3140 3139 3138 3137 3136 3133 3130 3128 3128 3128 3127 3125 3124 3122
3138 3139 3140 3141 3142 3143 3143 3144 3145 3145 3147 3148 3148 3149 3150 3151 3152 3152 3153 3153 3153 3154 3154 3154 3154 3154 3153 3153 3153 3152 3152 3152 3151 3151 3151 3150 3150 3150 3149 3149 3148 3147 3146 3146 3144 3143 3142 3141 3140 3138 3137 3136 3135 3135 3134 3131 3129 3128 3128 3127 3125 3123 3121
3136 3137 3138 3139 3140 3141 3142 3142 3143 3144 3145 3146 3147 3148 3149 3150 3150 3150 3151 3151 3151 3152 3152 3152 3152 3152 3151 3151 3151 3150 3150 3150 3149 3149 3149 3149 3148 3148 3147 3147 3146 3145 3145 3144 3143 3141 3140 3139 3138 3137 3136 3135 3134 3133 3132 3131 3129 3128 3126 3125 3124 3122 3120
3135 3136 3137 3137 3138 3139 3140 3141 3141 3142 3143 3144 3145 3146 3148 3148 3148 3149 3149 3149 3149 3150 3150 3150 3150 3150 3150 3149 3149 3149 3148 3148 3148 3148 3147 3147 3146 3146 3146 3145 3144 3144 3143 3142 3141 3140 3139 3137 3136 3135 3134 3133 3132 3131 3130 3129 3128 3127 3125 3124 3122 3121 3119
3133 3134 3135 3135 3136 3137 3138 3139 3139 3140 3142 3143 3143 3145 3146 3146 3147 3147 3147 3147 3148 3148 3148 3148 3148 3148 3148 3148 3147 3147 3147 3146 3146 3146 3145 3145 3145 3144 3144 3143 3143 3142 3141 3140 3139 3138 3137 3136 3135 3134 3133 3132 3131 3130 3129 3128 3126 3125 3124 3123 3121 3119 3118
3131 3131 3132 3133 3134 3135 3136 3137 3138 3139 3140 3141 3142 3143 3144 3144 3145 3145 3145 3146 3146 3146 3146 3146 3146 3146 3146 3146 3145 3145 3145 3145 3144 3144 3143 3143 3143 3142 3142 3141 3141 3140 3139 3138 3137 3136 3135 3134 3134 3133 3132 3131 3130 3129 3128 3127 3125 3124 3122 3121 3119 3117 3116
3129 3129 3130 3131 3132 3133 3134 3135 3137 3137 3138 3139 3140 3141 3142 3142 3143 3143 3144 3144 3144 3144 3144 3144 3144 3144 3144 3144 3143 3143 3143 3143 3142 3142 3141 3141 3141 3141 3140 3140 3139 3138 3137 3136 3135 3135 3134 3133 3132 3132 3131 3130 3129 3128 3126 3125 3124 3123 3121 3119 3117 3115 3113
3126 3127 3128 3130 3131 3131 3132 3134 3135 3136 3136 3137 3138 3139 3140 3140 3141 3141 3142 3142 3142 3142 3142 3142 3142 3142 3142 3142 3141 3141 3141 3141 3140 3140 3140 3140 3139 3139 3139 3138 3137 3137 3136 3135 3134 3133 3133 3132 3131 3131 3130 3129 3128 3126 3125 3124 3123 3122 3120 3118 3115 3113 3111
3124 3125 3127 3128 3129 3130 3131 3132 3133 3134 3134 3135 3136 3137 3138 3138 3139 3139 3140 3140 3141 3141 3141 3140 3140 3140 3140 3140 3140 3139 3139 3139 3139 3138 3138 3138 3138 3137 3137 3136 3136 3135 3134 3133 3133 3132 3131 3131 3130 3129 3129 3127 3126 3125 3124 3123 3121 3120 3119 3117 3114 3112 3109
3122 3124 3125 3126 3127 3128 3129 3130 3130 3131 3132 3132 3134 3135 3136 3137 3137 3137 3138 3139 3139 3139 3139 3138 3138 3138 3138 3138 3138 3138 3138 3137 3137 3137 3137 3136 3136 3136 3135 3135 3134 3133 3132 3132 3131 3131 3130 3130 3129 3128 3127 3126 3125 3123 3122 3121 3119 3118 3116 3114 3112 3109 3106
3120 3121 3123 3123 3124 3125 3126 3127 3128 3129 3130 3130 3131 3133 3134 3135 3135 3136 3136 3137 3137 3137 3136 3136 3136 3136 3136 3136 3136 3136 3136 3136 3135 3135 3135 3134 3134 3134 3133 3133 3132 3131 3131 3130 3130 3130 3129 3128 3127 3126 3125 3124 3123 3122 3120 3119 3117 3115 3113 3111 3109 3106 3103
3117 3118 3120 3121 3122 3123 3123 3125 3125 3126 3127 3128 3130 3131 3132 3133 3133 3133 3134 3134 3134 3134 3134 3134 3135 3135 3135 3134 3134 3134 3134 3134 3133 3133 3133 3132 3132 3132 3131 3131 3130 3129 3129 3129 3128 3128 3127 3126 3126 3124 3123 3122 3121 3120 3119 3117 3115 3113 3110 3108 3106 3104 3101
3114 3115 3117 3118 3119 3120 3121 3122 3123 3124 3126 3127 3128 3129 3130 3130 3131 3131 3131 3132 3132 3132 3132 3132 3133 3133 3133 3133 3132 3132 3132 3131 3131 3131 3131 3130 3130 3130 3129 3129 3128 3128 3127 3127 3127 3126 3125 3125 3123 3122 3121 3120 3120 3118 3117 3115 3113 3111 3109 3106 3103 3101 3099
3111 3113 3114 3116 3117 3118 3119 3120 3121 3122 3124 3125 3126 3127 3127 3128 3129 3129 3129 3130 3130 3130 3130 3130 3131 3131 3131 3130 3130 3129 3129 3129 3129 3129 3129 3128 3128 3127 3127 3127 3126 3126 3126 3125 3125 3124 3124 3123 3122 3121 3120 3119 3118 3117 3115 3114 3112 3110 3107 3104 3102 3099 3097
3109 3111 3112 3113 3114 3115 3117 3118 3119 3121 3122 3123 3124 3125 3125 3126 3127 3127 3127 3127 3128 3128 3128 3128 3129 3129 3128 3127 3127 3126 3126 3126 3126 3126 3126 3126 3126 3125 3125 3125 3125 3124 3124 3124 3123 3123 3122 3121 3120 3119 3118 3118 3117 3115 3114 3112 3110 3108 3105 3103 3100 3097 3095
3107 3108 3109 3111 3112 3113 3115 3116 3117 3119 3120 3121 3122 3123 3124 3124 3124 3124 3125 3125 3126 3127 3127 3127 3126 3126 3126 3125 3125 3125 3124 3123 3124 3124 3124 3124 3123 3123 3123 3123 3123 3123 3123 3122 3122 3121 3120 3119 3118 3118 3117 3116 3115 3114 3112 3110 3108 3106 3104 3101 3098 3096 3093
3104 3106 3107 3109 3110 3111 3112 3114 3116 3117 3119 3119 3120 3121 3122 3122 3121 3122 3122 3123 3123 3124 3124 3124 3123 3123 3123 3123 3123 3122 3121 3121 3121 3121 3121 3121 3121 3121 3122 3122 3121 3121 3121 3120 3120 3119 3118 3118 3117 3116 3116 3115 3114 3112 3110 3108 3106 3104 3102 3100 3097 3094 3091
3102 3103 3105 3107 3108 3109 3110 3112 3114 3115 3116 3117 3118 3118 3119 3119 3119 3120 3120 3120 3121 3121 3120 3120 3120 3120 3120 3120 3120 3120 3119 3119 3119 3119 3119 3119 3119 3119 3120 3120 3120 3119 3119 3119 3118 3117 3117 3116 3116 3115 3114 3113 3112 3110 3108 3106 3105 3103 3100 3098 3096 3093 3089
3099 3101 3103 3104 3106 3107 3108 3110 3112 3113 3114 3114 3115 3116 3116 3116 3117 3117 3117 3117 3118 3117 3117 3117 3117 3117 3118 3118 3118 3117 3117 3116 3117 3117 3117 3117 3117 3117 3118 3118 3118 3118 3117 3116 3116 3116 3115 3115 3114 3114 3113 3112 3110 3109 3107 3105 3103 3101 3099 3097 3094 3091 3086
3097 3099 3101 3102 3103 3105 3106 3107 3109 3110 3111 3112 3112 3113 3114 3114 3114 3114 3114 3114 3114 3114 3114 3114 3114 3115 3115 3115 3115 3115 3115 3115 3115 3115 3115 3115 3115 3116 3116 3116 3116 3116 3115 3115 3114 3114 3114 3113 3113 3112 3111 3110 3109 3108 3106 3104 3101 3099 3097 3095 3092 3089 3085
3095 3097 3099 3100 3101 3102 3104 3105 3106 3108 3109 3109 3110 3110 3111 3111 3111 3111 3112 3112 3112 3112 3112 3111 3111 3112 3113 3113 3113 3112 3113 3113 3113 3113 3113 3113 3114 3114 3114 3114 3114 3114 3113 3113 3113 3113 3112 3112 3111 3110 3110 3108 3107 3106 3104 3102 3100 3098 3096 3094 3091 3087 3083
3093 3095 3096 3098 3099 3100 3101 3102 3104 3105 3106 3107 3107 3108 3108 3108 3108 3108 3108 3109 3109 3109 3109 3109 3109 3109 3110 3110 3110 3110 3110 3111 3111 3111 3111 3111 3112 3112 3112 3112 3112 3112 3112 3112 3111 3111 3111 3110 3109 3109 3108 3107 3105 3104 3102 3100 3098 3096 3094 3091 3088 3084 3082
3090 3092 3094 3095 3097 3097 3098 3100 3102 3103 3104 3104 3104 3105 3105 3106 3105 3105 3105 3106 3106 3106 3106 3106 3106 3107 3107 3107 3107 3108 3108 3108 3108 3109 3109 3109 3110 3110 3110 3110 3110 3110 3110 3110 3110 3109 3109 3108 3108 3107 3106 3105 3104 3102 3100 3098 3096 3094 3092 3090 3087 3085 3083
3088 3090 3091 3093 3094 3095 3096 3097 3099 3100 3100 3101 3102 3102 3103 3103 3103 3103 3103 3102 3102 3103 3103 3103 3104 3105 3105 3105 3105 3106 3106 3106 3106 3107 3107 3107 3108 3108 3109 3109 3108 3109 3109 3109 3108 3108 3107 3107 3106 3106 3105 3104 3102 3101 3099 3097 3095 3093 3091 3089 3088 3086 3083
3086 3087 3089 3090 3091 3092 3093 3095 3096 3096 3097 3098 3099 3099 3099 3100 3100 3100 3100 3100 3099 3100 3100 3100 3101 3102 3102 3102 3103 3103 3104 3104 3104 3105 3105 3106 3106 3107 3107 3107 3107 3107 3107 3107 3107 3106 3106 3106 3105 3104 3103 3102 3101 3100 3099 3097 3095 3093 3091 3089 3088 3085 3082
3084 3085 3087 3087 3088 3089 3090 3092 3093 3093 3094 3096 3096 3096 3096 3097 3098 3098 3097 3097 3096 3097 3098 3098 3098 3099 3100 3100 3101 3101 3101 3102 3102 3103 3103 3104 3104 3105 3105 3105 3105 3106 3106 3106 3105 3105 3105 3104 3104 3103 3102 3101 3100 3099 3097 3096 3094 3092 3091 3089 3087 3084 3080
3082 3083 3084 3085 3086 3086 3088 3089 3089 3090 3091 3092 3093 3093 3094 3094 3094 3094 3094 3093 3093 3094 3096 3096 3096 3097 3097 3097 3098 3099 3099 3100 3100 3101 3101 3102 3102 3103 3103 3103 3104 3104 3104 3104 3104 3104 3103 3103 3102 3101 3101 3100 3099 3098 3096 3094 3093 3091 3089 3088 3085 3081 3078
3079 3080 3081 3082 3083 3083 3084 3085 3086 3087 3087 3088 3089 3089 3090 3091 3091 3091 3091 3091 3091 3092 3093 3093 3094 3094 3095 3095 3096 3097 3097 3098 3098 3099 3099 3100 3100 3101 3101 3102 3102 3102 3103 3103 3103 3102 3102 3101 3101 3100 3099 3098 3097 3096 3095 3093 3091 3090 3088 3086 3082 3080 3077
3076 3077 3078 3079 3079 3080 3081 3082 3083 3083 3084 3084 3085 3086 3087 3088 3088 3088 3088 3088 3088 3089 3090 3090 3091 3093 3094 3095 3095 3095 3095 3096 3096 3097 3097 3098 3098 3099 3099 3100 3100 3100 3101 3101 3101 3101 3100 3100 3099 3099 3098 3097 3096 3095 3093 3092 3090 3089 3086 3084 3081 3078 3076
3073 3074 3075 3076 3077 3077 3078 3079 3080 3080 3081 3081 3082 3084 3085 3085 3085 3086 3086 3086 3086 3087 3088 3088 3089 3090 3092 3092 3093 3093 3093 3093 3094 3095 3095 3095 3095 3096 3097 3098 3099 3098 3099 3099 3099 3099 3098 3098 3098 3097 3096 3096 3094 3093 3092 3090 3089 3087 3084 3082 3080 3077 3074
3071 3072 3072 3073 3074 3075 3075 3076 3077 3077 3077 3079 3080 3082 3083 3083 3083 3083 3083 3083 3083 3085 3085 3085 3086 3087 3089 3090 3090 3090 3091 3091 3092 3092 3092 3092 3093 3094 3096 3097 3097 3097 3097 3097 3097 3097 3097 3097 3096 3096 3095 3094 3093 3092 3090 3089 3087 3085 3082 3081 3078 3075 3073